This is the latest recevied weather packets stored in our database for station/object EA5CLU-13. If no packets are shown the sender has not sent any weather packets the latest 10 day(s).
| Time | Temp. | Humidity | Pressure | Rain* | Wind** | Luminosity | Snow |
|---|---|---|---|---|---|---|---|
| 1787401689 | 26.67° C | - | 1018.3 hPa | 0 mm | - | - | - |
| 1787401389 | 26.11° C | - | 1018.5 hPa | 0 mm | - | - | - |
| 1787400790 | 26.67° C | - | 1018.3 hPa | 0 mm | - | - | - |
| 1787400491 | 26.11° C | - | 1018.4 hPa | 0 mm | - | - | - |
| 1787400190 | 25.56° C | - | 1018.3 hPa | 0 mm | - | - | - |
| 1787399890 | 25° C | - | 1018.7 hPa | 0 mm | - | - | - |
| 1787399589 | 24.44° C | - | 1018.6 hPa | 0 mm | - | - | - |
| 1787399289 | 25° C | - | 1018.6 hPa | 0 mm | - | - | - |
| 1787398989 | 25° C | - | 1018.6 hPa | 0 mm | - | - | - |
| 1787398690 | 25° C | - | 1018.8 hPa | 0 mm | - | - | - |
| 1787398390 | 24.44° C | - | 1018.8 hPa | 0 mm | - | - | - |
| 1787398090 | 25° C | - | 1018.9 hPa | 0 mm | - | - | - |
| 1787397788 | 25° C | - | 1018.8 hPa | 0 mm | - | - | - |
| 1787397488 | 24.44° C | - | 1018.6 hPa | 0 mm | - | - | - |
| 1787397190 | 24.44° C | - | 1019 hPa | 0 mm | - | - | - |
| 1787396889 | 24.44° C | - | 1018.9 hPa | 0 mm | - | - | - |
| 1787396589 | 24.44° C | - | 1018.9 hPa | 0 mm | - | - | - |
| 1787396290 | 24.44° C | - | 1019.1 hPa | 0 mm | - | - | - |
| 1787395990 | 25° C | - | 1019 hPa | 0 mm | - | - | - |
| 1787395689 | 24.44° C | - | 1019.2 hPa | 0 mm | - | - | - |
| 1787395389 | 25° C | - | 1019 hPa | 0 mm | - | - | - |
| 1787395089 | 24.44° C | - | 1019.1 hPa | 0 mm | - | - | - |
| 1787394788 | 23.89° C | - | 1019.2 hPa | 0 mm | - | - | - |
| 1787394491 | 24.44° C | - | 1019.1 hPa | 0 mm | - | - | - |
| 1787394190 | 24.44° C | - | 1019.4 hPa | 0 mm | - | - | - |
* Rain latest hour (hover to see other rain measurements)
** Current wind speed in m/s (hover to see current wind gust speed)